Helicity
174 164 154 122 134 137 148 155 131 106 92 71 53 31 21 22 31 35 38 41 42 43 47 50 57 54 33 41 37 34 23 30
250 211 185 160 121 167 183 187 178 151 120 90 73 58 37 23 27 28 32 44 47 35 32 44 45 55 36 35 32 28 22 24
271 258 216 156 109 131 124 141 174 179 155 128 92 79 62 44 36 40 31 33 41 53 37 36 46 43 31 26 33 32 31 24
210 176 162 114 84 89 75 92 105 109 122 141 121 93 70 66 64 47 39 45 39 44 46 49 45 42 49 38 40 34 34 25
182 148 118 88 64 38 35 46 68 78 104 130 130 115 131 116 90 79 66 66 49 55 52 50 48 52 48 52 42 38 40 37
198 174 142 124 64 56 57 62 61 60 67 95 72 55 77 81 88 98 99 79 62 63 77 65 42 42 47 41 41 48 50 45
217 209 194 151 108 57 39 33 20 19 29 55 62 71 68 62 61 65 81 110 122 92 69 68 71 46 38 50 37 42 45 52
214 206 167 132 104 77 45 25 16 17 16 33 48 40 42 45 53 69 82 75 77 90 114 85 92 89 49 38 46 47 56 52
249 213 188 160 112 73 45 37 20 18 16 38 43 53 56 48 45 65 72 74 89 71 102 132 116 104 93 65 65 59 72 83
245 197 190 156 117 70 42 37 32 34 35 40 64 66 70 45 46 65 80 83 78 96 110 116 177 124 123 118 88 74 76 113
222 178 176 134 85 40 37 39 36 37 42 36 53 53 65 48 49 67 89 86 86 88 104 135 122 134 176 113 115 89 59 98
173 142 135 114 87 74 66 61 72 67 55 68 103 106 90 61 76 95 95 74 83 95 87 102 136 135 115 95 164 123 137 91
211 193 169 129 119 94 71 75 68 76 102 133 133 118 130 129 96 69 64 51 63 60 41 55 87 140 145 100 59 120 124 171
147 90 50 21 -1 -5 -27 -1 23 39 60 62 72 91 108 101 101 84 81 47 25 23 47 31 18 75 71 111 62 50 71 265
99 65 49 46 35 24 21 -5 14 34 48 49 52 54 65 69 72 60 56 38 28 17 17 48 47 38 97 73 61 145 174 165
70 55 44 32 32 29 30 12 30 31 29 43 61 69 72 80 78 63 39 15 17 31 48 46 40 49 32 74 145 149 112 141
58 54 53 47 34 30 17 17 3 -3 5 21 24 31 42 53 56 36 18 -5 6 34 65 60 68 53 44 56 97 122 178 160
33 39 33 29 29 32 25 15 2 -2 7 12 10 5 17 29 42 40 27 -9 -1 35 58 49 82 113 67 35 62 79 101 180
25 32 48 48 41 36 26 16 8 11 26 38 38 47 47 44 49 57 53 15 27 55 68 58 33 43 70 47 53 76 89 115
55 64 70 58 37 32 21 20 24 29 38 45 53 50 47 36 43 53 57 19 35 70 30 45 44 43 43 74 64 44 78 96
Wind_Speed
48 48 48 48 49 47 46 44 43 44 45 46 46 43 38 35 33 33 33 32 30 29 29 27 25 24 23 24 24 25 27 28
50 49 49 49 49 51 49 49 49 48 47 48 48 49 44 39 38 37 32 36 32 30 31 29 25 22 21 21 21 24 22 24
52 52 52 51 51 51 51 51 50 51 52 53 51 49 50 51 46 40 35 33 38 34 31 29 25 21 18 19 21 21 20 21
54 54 54 52 51 52 53 53 52 53 54 55 53 53 52 54 55 56 46 36 32 36 38 32 29 25 23 19 18 20 20 21
54 55 55 54 54 54 54 53 54 54 56 57 57 55 56 57 56 55 55 52 43 38 33 34 35 33 28 23 21 19 20 20
56 57 57 58 56 57 56 56 56 56 57 60 61 59 60 61 61 63 61 55 56 47 41 38 37 33 33 32 27 23 21 21
56 58 58 59 58 58 57 58 58 57 58 62 62 63 64 65 65 65 64 66 64 63 55 48 46 44 36 31 31 32 27 25
56 58 59 59 58 59 59 59 59 60 61 64 64 65 67 68 68 68 68 69 70 71 71 56 53 53 48 39 37 35 36 32
57 58 60 60 59 59 59 61 61 63 63 66 66 68 71 72 70 70 72 75 75 74 75 74 58 57 57 55 50 44 43 40
57 59 62 63 62 61 61 62 63 65 66 68 70 72 75 75 74 75 77 74 74 75 77 79 78 68 64 65 63 59 51 50
59 61 66 66 65 62 63 63 66 67 69 71 73 75 78 79 78 80 80 76 74 75 79 78 84 85 85 73 70 69 63 57
60 63 67 69 68 67 66 66 70 70 71 73 75 77 79 80 80 82 81 80 80 81 84 82 86 88 91 94 90 76 72 70
64 68 71 72 74 75 74 77 77 75 75 77 78 81 82 84 83 84 82 84 86 86 86 87 88 87 96 92 96 92 78 79
64 67 69 71 71 72 69 75 73 74 77 78 79 82 83 82 84 85 87 88 88 88 90 94 88 79 87 98 101 95 91 66
64 66 68 70 72 73 75 70 77 78 81 81 83 81 82 82 84 86 88 89 91 90 90 93 97 88 81 82 94 92 82 77
61 64 68 70 74 77 80 82 86 86 84 84 84 82 82 82 84 86 87 89 92 93 91 93 91 97 90 81 89 102 100 100
61 65 68 72 75 78 80 82 82 82 81 83 82 83 81 82 84 87 89 90 92 92 95 94 92 95 93 93 97 98 102 109
59 66 69 72 74 77 81 84 84 84 84 84 82 80 81 82 86 86 89 91 94 94 92 94 94 92 97 99 103 102 103 105
59 65 70 73 74 79 81 83 81 81 82 82 85 84 83 84 87 88 88 90 91 88 85 91 95 99 100 100 100 105 104 107
60 67 72 74 75 79 80 80 78 77 79 80 78 78 82 84 82 83 85 89 91 81 85 86 90 95 100 101 103 102 103 111
Wind_Direction
354 350 348 349 348 345 343 341 340 337 335 332 331 334 339 342 344 346 344 346 349 351 355 357 1 4 5 6 7 7 6 8
350 348 346 346 347 342 339 336 335 334 333 332 329 325 329 331 332 333 341 334 338 340 340 345 350 356 359 2 4 0 4 5
350 347 344 343 345 342 341 340 336 332 330 329 328 328 325 323 324 326 329 331 324 327 331 335 340 343 345 349 352 355 357 357
350 349 348 347 348 346 343 340 340 339 336 332 330 326 325 322 319 317 320 321 321 318 316 321 326 329 334 333 338 340 342 344
354 353 354 353 352 350 350 348 343 340 338 334 331 331 328 325 321 321 318 317 314 315 314 311 310 313 317 319 321 324 327 328
356 355 356 356 356 353 351 348 345 342 340 338 333 329 326 324 323 320 317 316 312 310 307 305 303 302 303 304 304 305 309 312
357 356 356 354 355 355 355 353 353 351 347 342 338 333 329 326 322 319 317 314 312 309 304 301 299 297 293 289 291 292 291 295
356 357 357 356 354 352 352 351 349 348 347 345 344 340 334 329 324 320 316 314 310 307 304 299 296 293 291 283 282 281 283 283
351 352 354 356 354 353 351 350 349 347 344 342 340 339 335 332 329 326 319 312 308 306 304 302 293 292 289 287 284 278 276 274
349 348 347 350 349 348 348 347 345 343 341 339 337 334 332 330 328 326 322 319 312 306 303 300 299 292 287 286 283 282 275 272
344 341 343 345 347 347 346 346 344 341 339 336 334 333 330 327 326 324 323 320 317 313 305 302 297 294 291 287 282 280 276 274
341 339 341 342 343 343 343 342 341 339 337 335 334 332 330 328 327 325 323 319 316 312 308 304 298 295 292 287 284 279 275 273
344 342 341 341 340 339 338 337 336 336 336 334 332 330 329 328 325 324 324 319 315 311 308 305 302 299 293 290 283 281 276 272
345 344 344 345 346 344 340 336 336 334 334 332 332 331 330 329 326 324 322 318 316 312 308 302 301 302 295 291 284 284 277 281
345 346 347 348 347 344 342 341 337 336 334 334 332 332 331 329 328 325 323 320 315 313 309 303 298 298 297 290 284 282 290 279
347 348 347 347 346 343 341 338 335 334 333 333 334 334 333 332 330 328 325 321 316 312 309 304 300 295 294 290 286 282 279 279
346 347 346 345 344 343 342 340 339 337 336 335 335 334 334 333 331 328 326 324 320 314 309 303 298 295 291 288 286 283 280 275
344 342 343 343 344 344 343 340 339 338 337 337 336 336 336 335 332 331 329 326 321 316 310 304 300 296 293 288 283 280 277 275
342 343 342 344 344 344 343 342 341 340 340 339 337 336 337 335 335 333 331 329 327 320 316 309 303 297 294 289 284 279 278 275
342 342 343 343 343 343 343 343 343 343 341 340 340 339 338 337 337 337 334 331 329 326 319 315 309 302 295 290 286 282 279 274